Home > Weather > Nanaimo > Past weeks

Flag for Canada Past Weather in Nanaimo, British Columbia, Canada — Yesterday and Last 2 Weeks

Now
53 °F

Cool.


Feels Like: 51 °F
Forecast: 48 / 62 °F
Wind: 7 mph from Northwest

Location: Entrance Island

Current Time: May 29, 2016 at 8:27:35 AM

Latest Report: May 29, 2016 at 7:00 AM


Visibility: N/A

Pressure: 30.06 "Hg

Humidity: 84%

Dew Point: 48 °F

Location of NanaimoLocation

Past Weather in Nanaimo — Graph

°F

Nanaimo Temperature Yesterday

Maximum temperature yesterday: 56 °F (at 3:00 PM)
Minimum temperature yesterday: 49 °F (at 6:00 AM)
Average temperature yesterday: 53 °F

High & Low Weather Summary for the Past Weeks

 TemperatureHumidityPressure
High69 °F (May 14, 3:00 PM)100% (May 16, 9:00 AM)30.28 "Hg (May 16, 9:00 AM)
Low49 °F (May 28, 6:00 AM)50% (May 14, 3:00 PM)29.71 "Hg (May 21, 6:00 AM)
Average56 °F81%29.98 "Hg
* Reported May 14 7:00 AM — May 29 7:00 AM, Nanaimo, Weather by CustomWeather, © 2016

Note: Actual official high and low records may vary slightly from our data, if they occured in-between our weather recording intervals... More about our weather records

Advertising

Nanaimo Weather History for the Previous 24 Hours

Scroll right to see more
 ConditionsComfort  
Time TempWeatherWind HumidityBarometerVisibility
7:00 AM
Sun, May 29
53 °FCool.7 mph84%30.06 "HgN/A
6:00 AM53 °FCool.8 mph90%30.04 "HgN/A
5:00 AM51 °FCool.8 mph94%30.03 "HgN/A
4:00 AM52 °FCool.7 mph94%30.02 "HgN/A
3:00 AM52 °FCool.5 mph91%30.01 "HgN/A
2:00 AM53 °FCool.No wind88%30.01 "HgN/A
1:00 AM53 °FCool.1 mph87%30.00 "HgN/A
12:00 AM53 °FCool.6 mph89%30.00 "HgN/A
11:00 PM
Sat, May 28
53 °FCool.9 mph90%29.98 "HgN/A
10:00 PM53 °FCool.9 mph87%29.98 "HgN/A
9:00 PM53 °FCool.13 mph86%29.97 "HgN/A
8:00 PM54 °FCool.10 mph92%29.96 "HgN/A
7:00 PM54 °FCool.18 mph91%29.95 "HgN/A
6:00 PM54 °FCool.17 mph93%29.93 "HgN/A
5:00 PM55 °FCool.13 mph90%29.93 "HgN/A
4:00 PM56 °FCool.8 mph88%29.93 "HgN/A
3:00 PM56 °FCool.18 mph84%29.91 "HgN/A
2:00 PM56 °FCool.22 mph85%29.90 "HgN/A
1:00 PM55 °FCool.22 mph82%29.91 "HgN/A
12:00 PM54 °FCool.22 mph89%29.91 "HgN/A
11:00 AM53 °FCool.22 mph86%29.92 "HgN/A
10:00 AM52 °FCool.24 mph92%29.93 "HgN/A
9:00 AM51 °FCool.28 mph94%29.94 "HgN/A
8:00 AM51 °FCool.24 mph94%29.96 "HgN/A
Weather by CustomWeather, © 2016

See weather overviewHow to use our weather pages